Location: Sternwarte ZA, Rosenfeld-Brittheim
(48.2889°N, 8.6789°E)
Time: 21:08:50
(UTC+02:00)

Envisat - Visible Passes

Search period start: 23 April 2018 00:00
Search period end: 03 May 2018 00:00
Orbit: 764 x 766 km, 98.2° (Epoch: 23 April)

Date Brightness Start Highest point End Pass type
(mag) Time Alt. Az. Time Alt. Az. Time Alt. Az.
23 Apr 4.8 21:33:31 10° SSW 21:38:00 31° W 21:42:30 10° NNW visible
24 Apr 3.5 20:56:02 10° S 21:01:04 64° WSW 21:06:09 10° NNW visible
25 Apr 5.5 22:00:15 10° SW 22:03:50 19° W 22:07:25 10° NW visible
26 Apr 4.5 21:22:03 10° SSW 21:26:46 38° W 21:31:31 10° NNW visible
27 Apr 5.9 22:28:19 10° WSW 22:29:47 11° W 22:31:14 10° WNW visible
28 Apr 5.3 21:48:32 10° SW 21:52:34 23° W 21:56:37 10° NW visible
29 Apr 4.1 21:10:40 10° S 21:15:33 47° W 21:20:28 10° NNW visible
30 Apr 5.7 22:15:49 10° WSW 22:18:27 14° W 22:21:06 10° NW visible
01 May 5.0 21:36:57 10° SSW 21:41:18 29° W 21:45:43 10° NW visible
